owner,sensor,date,latitude,longitude,vertical_datum,sea_water_practical_salinity,qcFlag 
DISL,ioos:station:DISL:MHPA:1,2010-11-01T00:00:00Z,30.6671,-87.9365,3.278,9.0,1111122 
DISL,ioos:station:DISL:MHPA:1,2010-11-01T00:30:00Z,30.6671,-87.9365,3.342,9.38,1111122 
DISL,ioos:station:DISL:MHPA:1,2010-11-01T01:00:00Z,30.6671,-87.9365,3.439,8.83,1111122 
DISL,ioos:station:DISL:MHPA:1,2010-11-01T01:30:00Z,30.6671,-87.9365,3.494,9.01,1111122 
DISL,ioos:station:DISL:MHPA:1,2010-11-01T02:00:00Z,30.6671,-87.9365,3.575,9.19,1111122 
DISL,ioos:station:DISL:MHPA:1,2010-11-01T02:30:00Z,30.6671,-87.9365,3.655,9.44,1111122 
DISL,ioos:station:DISL:MHPA:1,2010-11-01T03:00:00Z,30.6671,-87.9365,3.705,9.15,1111122 
DISL,ioos:station:DISL:MHPA:1,2010-11-01T03:30:00Z,30.6671,-87.9365,3.755,9.44,1111122 
DISL,ioos:station:DISL:MHPA:1,2010-11-01T04:00:00Z,30.6671,-87.9365,3.781,9.36,1111122 
DISL,ioos:station:DISL:MHPA:1,2010-11-01T04:30:00Z,30.6671,-87.9365,3.783,8.78,1111122 
DISL,ioos:station:DISL:MHPA:1,2010-11-01T05:00:00Z,30.6671,-87.9365,3.792,8.96,1111122 
DISL,ioos:station:DISL:MHPA:1,2010-11-01T05:30:00Z,30.6671,-87.9365,3.821,8.84,1111122 
DISL,ioos:station:DISL:MHPA:1,2010-11-01T06:00:00Z,30.6671,-87.9365,3.798,9.03,1111122 
DISL,ioos:station:DISL:MHPA:1,2010-11-01T06:30:00Z,30.6671,-87.9365,3.778,9.22,1111122 
DISL,ioos:station:DISL:MHPA:1,2010-11-01T07:00:00Z,30.6671,-87.9365,3.782,9.11,1111122 
DISL,ioos:station:DISL:MHPA:1,2010-11-01T07:30:00Z,30.6671,-87.9365,3.784,8.74,1111122 
DISL,ioos:station:DISL:MHPA:1,2010-11-01T08:00:00Z,30.6671,-87.9365,3.74,9.15,1111122 
DISL,ioos:station:DISL:MHPA:1,2010-11-01T08:30:00Z,30.6671,-87.9365,3.693,8.93,1111122 
DISL,ioos:station:DISL:MHPA:1,2010-11-01T09:00:00Z,30.6671,-87.9365,3.72,9.06,1111122 
DISL,ioos:station:DISL:MHPA:1,2010-11-01T09:30:00Z,30.6671,-87.9365,3.688,8.93,1111122 
DISL,ioos:station:DISL:MHPA:1,2010-11-01T10:00:00Z,30.6671,-87.9365,3.638,9.11,1111122 
DISL,ioos:station:DISL:MHPA:1,2010-11-01T10:30:00Z,30.6671,-87.9365,3.662,9.01,1111122 
DISL,ioos:station:DISL:MHPA:1,2010-11-01T11:00:00Z,30.6671,-87.9365,3.642,9.26,1111122 
DISL,ioos:station:DISL:MHPA:1,2010-11-01T11:30:00Z,30.6671,-87.9365,3.603,9.61,1111122 
DISL,ioos:station:DISL:MHPA:1,2010-11-01T12:00:00Z,30.6671,-87.9365,3.594,8.6,1111122 
DISL,ioos:station:DISL:MHPA:1,2010-11-01T12:30:00Z,30.6671,-87.9365,3.536,9.02,1111122 
DISL,ioos:station:DISL:MHPA:1,2010-11-01T13:00:00Z,30.6671,-87.9365,3.533,8.93,1111122 
DISL,ioos:station:DISL:MHPA:1,2010-11-01T13:30:00Z,30.6671,-87.9365,3.452,8.24,1111122 
DISL,ioos:station:DISL:MHPA:1,2010-11-01T14:00:00Z,30.6671,-87.9365,3.426,8.98,1111122 
DISL,ioos:station:DISL:MHPA:1,2010-11-01T14:30:00Z,30.6671,-87.9365,3.404,8.78,1111122 
DISL,ioos:station:DISL:MHPA:1,2010-11-01T15:00:00Z,30.6671,-87.9365,3.338,8.72,1111122 
DISL,ioos:station:DISL:MHPA:1,2010-11-01T15:30:00Z,30.6671,-87.9365,3.293,8.8,1111122 
DISL,ioos:station:DISL:MHPA:1,2010-11-01T16:00:00Z,30.6671,-87.9365,3.276,8.77,1111122 
DISL,ioos:station:DISL:MHPA:1,2010-11-01T16:30:00Z,30.6671,-87.9365,3.286,9.0,1111122 
DISL,ioos:station:DISL:MHPA:1,2010-11-01T17:00:00Z,30.6671,-87.9365,3.273,8.65,1111122 
DISL,ioos:station:DISL:MHPA:1,2010-11-01T17:30:00Z,30.6671,-87.9365,3.186,8.7,1111122 
DISL,ioos:station:DISL:MHPA:1,2010-11-01T18:00:00Z,30.6671,-87.9365,3.129,8.87,1111122 
DISL,ioos:station:DISL:MHPA:1,2010-11-01T18:30:00Z,30.6671,-87.9365,3.118,8.46,1111122 
DISL,ioos:station:DISL:MHPA:1,2010-11-01T19:00:00Z,30.6671,-87.9365,3.029,8.32,1111122 
DISL,ioos:station:DISL:MHPA:1,2010-11-01T19:30:00Z,30.6671,-87.9365,2.961,8.5,1111122 
DISL,ioos:station:DISL:MHPA:1,2010-11-01T20:00:00Z,30.6671,-87.9365,2.988,8.66,1111122 
DISL,ioos:station:DISL:MHPA:1,2010-11-01T20:30:00Z,30.6671,-87.9365,3.004,8.25,1111122 
DISL,ioos:station:DISL:MHPA:1,2010-11-01T21:00:00Z,30.6671,-87.9365,3.027,8.51,1111122 
DISL,ioos:station:DISL:MHPA:1,2010-11-01T21:30:00Z,30.6671,-87.9365,3.097,8.61,1111122 
DISL,ioos:station:DISL:MHPA:1,2010-11-01T22:00:00Z,30.6671,-87.9365,3.21,8.45,1111122 
DISL,ioos:station:DISL:MHPA:1,2010-11-01T22:30:00Z,30.6671,-87.9365,3.332,8.31,1111122 
DISL,ioos:station:DISL:MHPA:1,2010-11-01T23:00:00Z,30.6671,-87.9365,3.436,8.28,1111122 
DISL,ioos:station:DISL:MHPA:1,2010-11-01T23:30:00Z,30.6671,-87.9365,3.457,8.52,1111122 
DISL,ioos:station:DISL:MHPA:1,2010-11-02T00:00:00Z,30.6671,-87.9365,3.521,8.76,1111122 
DISL,ioos:station:DISL:MHPA:1,2010-11-02T00:30:00Z,30.6671,-87.9365,3.591,8.57,1111122 
DISL,ioos:station:DISL:MHPA:1,2010-11-02T01:00:00Z,30.6671,-87.9365,3.581,8.61,1111122 
DISL,ioos:station:DISL:MHPA:1,2010-11-02T01:30:00Z,30.6671,-87.9365,3.658,8.25,1111122 
DISL,ioos:station:DISL:MHPA:1,2010-11-02T02:00:00Z,30.6671,-87.9365,3.706,8.35,1111122 
DISL,ioos:station:DISL:MHPA:1,2010-11-02T02:30:00Z,30.6671,-87.9365,3.725,7.97,1111122 
DISL,ioos:station:DISL:MHPA:1,2010-11-02T03:00:00Z,30.6671,-87.9365,3.746,8.38,1111122 
DISL,ioos:station:DISL:MHPA:1,2010-11-02T03:30:00Z,30.6671,-87.9365,3.762,7.82,1111122 
DISL,ioos:station:DISL:MHPA:1,2010-11-02T04:00:00Z,30.6671,-87.9365,3.825,7.74,1111122 
DISL,ioos:station:DISL:MHPA:1,2010-11-02T04:30:00Z,30.6671,-87.9365,3.84,8.42,1111122 
DISL,ioos:station:DISL:MHPA:1,2010-11-02T05:00:00Z,30.6671,-87.9365,3.798,8.7,1111122 
DISL,ioos:station:DISL:MHPA:1,2010-11-02T05:30:00Z,30.6671,-87.9365,3.804,8.44,1111122 
DISL,ioos:station:DISL:MHPA:1,2010-11-02T06:00:00Z,30.6671,-87.9365,3.696,8.19,1111122 
DISL,ioos:station:DISL:MHPA:1,2010-11-02T06:30:00Z,30.6671,-87.9365,3.596,7.89,1111122 
DISL,ioos:station:DISL:MHPA:1,2010-11-02T07:00:00Z,30.6671,-87.9365,3.519,8.53,1111122 
DISL,ioos:station:DISL:MHPA:1,2010-11-02T07:30:00Z,30.6671,-87.9365,3.386,8.27,1111122 
DISL,ioos:station:DISL:MHPA:1,2010-11-02T08:00:00Z,30.6671,-87.9365,3.262,8.46,1111122 
DISL,ioos:station:DISL:MHPA:1,2010-11-02T08:30:00Z,30.6671,-87.9365,3.184,8.06,1111122 
DISL,ioos:station:DISL:MHPA:1,2010-11-02T09:00:00Z,30.6671,-87.9365,3.128,7.76,1111122 
DISL,ioos:station:DISL:MHPA:1,2010-11-02T09:30:00Z,30.6671,-87.9365,3.061,7.81,1111122 
DISL,ioos:station:DISL:MHPA:1,2010-11-02T10:00:00Z,30.6671,-87.9365,3.009,8.0,1111122 
DISL,ioos:station:DISL:MHPA:1,2010-11-02T10:30:00Z,30.6671,-87.9365,2.966,7.93,1111122 
DISL,ioos:station:DISL:MHPA:1,2010-11-02T11:00:00Z,30.6671,-87.9365,2.972,8.22,1111122 
DISL,ioos:station:DISL:MHPA:1,2010-11-02T11:30:00Z,30.6671,-87.9365,3.002,8.43,1111122 
DISL,ioos:station:DISL:MHPA:1,2010-11-02T12:00:00Z,30.6671,-87.9365,2.999,7.87,1111122 
DISL,ioos:station:DISL:MHPA:1,2010-11-02T12:30:00Z,30.6671,-87.9365,3.105,8.5,1111122 
DISL,ioos:station:DISL:MHPA:1,2010-11-02T13:00:00Z,30.6671,-87.9365,3.183,7.94,1111122 
DISL,ioos:station:DISL:MHPA:1,2010-11-02T13:30:00Z,30.6671,-87.9365,3.239,7.54,1111122 
DISL,ioos:station:DISL:MHPA:1,2010-11-02T14:00:00Z,30.6671,-87.9365,3.417,8.06,1111122 
DISL,ioos:station:DISL:MHPA:1,2010-11-02T14:30:00Z,30.6671,-87.9365,4.015,8.27,1111122 
DISL,ioos:station:DISL:MHPA:1,2010-11-02T15:00:00Z,30.6671,-87.9365,3.764,7.15,1111122 
DISL,ioos:station:DISL:MHPA:1,2010-11-02T15:30:00Z,30.6671,-87.9365,3.424,8.19,1111122 
DISL,ioos:station:DISL:MHPA:1,2010-11-02T16:00:00Z,30.6671,-87.9365,3.602,7.01,1111122 
DISL,ioos:station:DISL:MHPA:1,2010-11-02T16:30:00Z,30.6671,-87.9365,3.713,6.92,1111122 
DISL,ioos:station:DISL:MHPA:1,2010-11-02T17:00:00Z,30.6671,-87.9365,3.556,4.64,1111122 
DISL,ioos:station:DISL:MHPA:1,2010-11-02T17:30:00Z,30.6671,-87.9365,3.863,4.31,1111122 
DISL,ioos:station:DISL:MHPA:1,2010-11-02T18:00:00Z,30.6671,-87.9365,3.985,5.04,1111122 
DISL,ioos:station:DISL:MHPA:1,2010-11-02T18:30:00Z,30.6671,-87.9365,3.902,4.82,1111122 
DISL,ioos:station:DISL:MHPA:1,2010-11-02T19:00:00Z,30.6671,-87.9365,4.06,6.78,1111122 
DISL,ioos:station:DISL:MHPA:1,2010-11-02T19:30:00Z,30.6671,-87.9365,3.729,7.15,1111122 
DISL,ioos:station:DISL:MHPA:1,2010-11-02T20:00:00Z,30.6671,-87.9365,3.732,6.42,1111122 
DISL,ioos:station:DISL:MHPA:1,2010-11-02T20:30:00Z,30.6671,-87.9365,3.649,5.97,1111122 
DISL,ioos:station:DISL:MHPA:1,2010-11-02T21:00:00Z,30.6671,-87.9365,3.53,7.11,1111122 
DISL,ioos:station:DISL:MHPA:1,2010-11-02T21:30:00Z,30.6671,-87.9365,3.488,5.17,1111122 
DISL,ioos:station:DISL:MHPA:1,2010-11-02T22:00:00Z,30.6671,-87.9365,3.596,5.96,1111122 
DISL,ioos:station:DISL:MHPA:1,2010-11-02T22:30:00Z,30.6671,-87.9365,3.616,5.18,1111122 
DISL,ioos:station:DISL:MHPA:1,2010-11-02T23:00:00Z,30.6671,-87.9365,3.665,7.36,1111122 
DISL,ioos:station:DISL:MHPA:1,2010-11-02T23:30:00Z,30.6671,-87.9365,3.823,6.04,1111122 
DISL,ioos:station:DISL:MHPA:1,2010-11-03T00:00:00Z,30.6671,-87.9365,3.761,6.58,1111122 
DISL,ioos:station:DISL:MHPA:1,2010-11-03T00:30:00Z,30.6671,-87.9365,3.68,5.91,1111122 
DISL,ioos:station:DISL:MHPA:1,2010-11-03T01:00:00Z,30.6671,-87.9365,3.901,6.76,1111122 
DISL,ioos:station:DISL:MHPA:1,2010-11-03T01:30:00Z,30.6671,-87.9365,3.862,5.54,1111122 
DISL,ioos:station:DISL:MHPA:1,2010-11-03T02:00:00Z,30.6671,-87.9365,3.924,5.27,1111122 
DISL,ioos:station:DISL:MHPA:1,2010-11-03T02:30:00Z,30.6671,-87.9365,4.12,5.14,1111122 
DISL,ioos:station:DISL:MHPA:1,2010-11-03T03:00:00Z,30.6671,-87.9365,3.992,5.26,1111122 
DISL,ioos:station:DISL:MHPA:1,2010-11-03T03:30:00Z,30.6671,-87.9365,4.12,6.6,1111122 
DISL,ioos:station:DISL:MHPA:1,2010-11-03T04:00:00Z,30.6671,-87.9365,4.434,5.51,1111122 
DISL,ioos:station:DISL:MHPA:1,2010-11-03T04:30:00Z,30.6671,-87.9365,4.424,5.04,1111122 
DISL,ioos:station:DISL:MHPA:1,2010-11-03T05:00:00Z,30.6671,-87.9365,4.283,5.19,1111122 
DISL,ioos:station:DISL:MHPA:1,2010-11-03T05:30:00Z,30.6671,-87.9365,4.262,4.5,1111122 
DISL,ioos:station:DISL:MHPA:1,2010-11-03T06:00:00Z,30.6671,-87.9365,4.352,4.37,1111122 
DISL,ioos:station:DISL:MHPA:1,2010-11-03T06:30:00Z,30.6671,-87.9365,4.189,4.97,1111122 
DISL,ioos:station:DISL:MHPA:1,2010-11-03T07:00:00Z,30.6671,-87.9365,4.014,5.44,1111122 
DISL,ioos:station:DISL:MHPA:1,2010-11-03T07:30:00Z,30.6671,-87.9365,4.007,6.17,1111122 
DISL,ioos:station:DISL:MHPA:1,2010-11-03T08:00:00Z,30.6671,-87.9365,3.918,6.51,1111122 
DISL,ioos:station:DISL:MHPA:1,2010-11-03T08:30:00Z,30.6671,-87.9365,3.836,6.41,1111122 
DISL,ioos:station:DISL:MHPA:1,2010-11-03T09:00:00Z,30.6671,-87.9365,3.712,5.66,1111122 
DISL,ioos:station:DISL:MHPA:1,2010-11-03T09:30:00Z,30.6671,-87.9365,3.554,5.72,1111122 
DISL,ioos:station:DISL:MHPA:1,2010-11-03T10:00:00Z,30.6671,-87.9365,3.515,5.96,1111122 
DISL,ioos:station:DISL:MHPA:1,2010-11-03T10:30:00Z,30.6671,-87.9365,3.716,5.16,1111122 
DISL,ioos:station:DISL:MHPA:1,2010-11-03T11:00:00Z,30.6671,-87.9365,3.523,4.97,1111122 
DISL,ioos:station:DISL:MHPA:1,2010-11-03T11:30:00Z,30.6671,-87.9365,3.523,6.36,1111122 
DISL,ioos:station:DISL:MHPA:1,2010-11-03T12:00:00Z,30.6671,-87.9365,3.515,4.86,1111122 
DISL,ioos:station:DISL:MHPA:1,2010-11-03T12:30:00Z,30.6671,-87.9365,3.529,5.42,1111122 
DISL,ioos:station:DISL:MHPA:1,2010-11-03T13:00:00Z,30.6671,-87.9365,3.46,5.85,1111122 
DISL,ioos:station:DISL:MHPA:1,2010-11-03T13:30:00Z,30.6671,-87.9365,3.45,6.03,1111122 
DISL,ioos:station:DISL:MHPA:1,2010-11-03T14:00:00Z,30.6671,-87.9365,3.412,5.63,1111122 
DISL,ioos:station:DISL:MHPA:1,2010-11-03T14:30:00Z,30.6671,-87.9365,3.459,6.24,1111122 
DISL,ioos:station:DISL:MHPA:1,2010-11-03T15:00:00Z,30.6671,-87.9365,3.406,5.13,1111122 
DISL,ioos:station:DISL:MHPA:1,2010-11-03T15:30:00Z,30.6671,-87.9365,3.416,4.84,1111122 
DISL,ioos:station:DISL:MHPA:1,2010-11-03T16:00:00Z,30.6671,-87.9365,3.661,4.99,1111122 
DISL,ioos:station:DISL:MHPA:1,2010-11-03T16:30:00Z,30.6671,-87.9365,3.786,4.86,1111122 
DISL,ioos:station:DISL:MHPA:1,2010-11-03T17:00:00Z,30.6671,-87.9365,4.218,4.89,1111122 
DISL,ioos:station:DISL:MHPA:1,2010-11-03T17:30:00Z,30.6671,-87.9365,4.069,4.61,1111122 
DISL,ioos:station:DISL:MHPA:1,2010-11-03T18:00:00Z,30.6671,-87.9365,4.038,6.96,1111122 
DISL,ioos:station:DISL:MHPA:1,2010-11-03T18:30:00Z,30.6671,-87.9365,3.909,5.38,1111122 
DISL,ioos:station:DISL:MHPA:1,2010-11-03T19:00:00Z,30.6671,-87.9365,3.857,5.17,1111122 
DISL,ioos:station:DISL:MHPA:1,2010-11-03T19:30:00Z,30.6671,-87.9365,3.936,5.24,1111122 
DISL,ioos:station:DISL:MHPA:1,2010-11-03T20:00:00Z,30.6671,-87.9365,3.992,5.05,1111122 
DISL,ioos:station:DISL:MHPA:1,2010-11-03T20:30:00Z,30.6671,-87.9365,3.764,4.87,1111122 
DISL,ioos:station:DISL:MHPA:1,2010-11-03T21:00:00Z,30.6671,-87.9365,3.577,4.71,1111122 
DISL,ioos:station:DISL:MHPA:1,2010-11-03T21:30:00Z,30.6671,-87.9365,3.525,4.65,1111122 
DISL,ioos:station:DISL:MHPA:1,2010-11-03T22:00:00Z,30.6671,-87.9365,3.544,4.62,1111122 
DISL,ioos:station:DISL:MHPA:1,2010-11-03T22:30:00Z,30.6671,-87.9365,3.648,4.59,1111122 
DISL,ioos:station:DISL:MHPA:1,2010-11-03T23:00:00Z,30.6671,-87.9365,3.781,4.62,1111122 
DISL,ioos:station:DISL:MHPA:1,2010-11-03T23:30:00Z,30.6671,-87.9365,3.932,4.55,1111122 
DISL,ioos:station:DISL:MHPA:1,2010-11-04T00:00:00Z,30.6671,-87.9365,3.967,4.53,1111122 
DISL,ioos:station:DISL:MHPA:1,2010-11-04T00:30:00Z,30.6671,-87.9365,4.027,5.74,1111122 
DISL,ioos:station:DISL:MHPA:1,2010-11-04T01:00:00Z,30.6671,-87.9365,4.086,5.45,1111122 
DISL,ioos:station:DISL:MHPA:1,2010-11-04T01:30:00Z,30.6671,-87.9365,4.132,5.2,1111122 
DISL,ioos:station:DISL:MHPA:1,2010-11-04T02:00:00Z,30.6671,-87.9365,4.215,5.01,1111122 
DISL,ioos:station:DISL:MHPA:1,2010-11-04T02:30:00Z,30.6671,-87.9365,4.283,4.82,1111122 
DISL,ioos:station:DISL:MHPA:1,2010-11-04T03:00:00Z,30.6671,-87.9365,4.309,4.84,1111122 
DISL,ioos:station:DISL:MHPA:1,2010-11-04T03:30:00Z,30.6671,-87.9365,4.349,4.88,1111122 
DISL,ioos:station:DISL:MHPA:1,2010-11-04T04:00:00Z,30.6671,-87.9365,4.281,4.81,1111122 
DISL,ioos:station:DISL:MHPA:1,2010-11-04T04:30:00Z,30.6671,-87.9365,4.288,4.81,1111122 
DISL,ioos:station:DISL:MHPA:1,2010-11-04T05:00:00Z,30.6671,-87.9365,4.445,5.03,1111122 
DISL,ioos:station:DISL:MHPA:1,2010-11-04T05:30:00Z,30.6671,-87.9365,4.472,4.83,1111122 
DISL,ioos:station:DISL:MHPA:1,2010-11-04T06:00:00Z,30.6671,-87.9365,4.304,4.86,1111122 
DISL,ioos:station:DISL:MHPA:1,2010-11-04T06:30:00Z,30.6671,-87.9365,4.254,5.01,1111122 
DISL,ioos:station:DISL:MHPA:1,2010-11-04T07:00:00Z,30.6671,-87.9365,4.053,4.96,1111122 
DISL,ioos:station:DISL:MHPA:1,2010-11-04T07:30:00Z,30.6671,-87.9365,3.871,5.17,1111122 
DISL,ioos:station:DISL:MHPA:1,2010-11-04T08:00:00Z,30.6671,-87.9365,3.683,4.94,1111122 
DISL,ioos:station:DISL:MHPA:1,2010-11-04T08:30:00Z,30.6671,-87.9365,3.52,5.17,1111122 
DISL,ioos:station:DISL:MHPA:1,2010-11-04T09:00:00Z,30.6671,-87.9365,3.334,4.77,1111122 
DISL,ioos:station:DISL:MHPA:1,2010-11-04T09:30:00Z,30.6671,-87.9365,3.16,5.03,1111122 
DISL,ioos:station:DISL:MHPA:1,2010-11-04T10:00:00Z,30.6671,-87.9365,2.996,5.05,1111122 
DISL,ioos:station:DISL:MHPA:1,2010-11-04T10:30:00Z,30.6671,-87.9365,2.848,5.42,1111122 
DISL,ioos:station:DISL:MHPA:1,2010-11-04T11:00:00Z,30.6671,-87.9365,2.721,4.71,1111122 
DISL,ioos:station:DISL:MHPA:1,2010-11-04T11:30:00Z,30.6671,-87.9365,2.598,4.6,1111122 
DISL,ioos:station:DISL:MHPA:1,2010-11-04T12:00:00Z,30.6671,-87.9365,2.45,5.69,1111122 
DISL,ioos:station:DISL:MHPA:1,2010-11-04T12:30:00Z,30.6671,-87.9365,2.295,6.36,1111122 
DISL,ioos:station:DISL:MHPA:1,2010-11-04T13:00:00Z,30.6671,-87.9365,2.151,4.73,1111122 
DISL,ioos:station:DISL:MHPA:1,2010-11-04T13:30:00Z,30.6671,-87.9365,2.035,4.67,1111122 
DISL,ioos:station:DISL:MHPA:1,2010-11-04T14:00:00Z,30.6671,-87.9365,1.943,4.62,1111122 
DISL,ioos:station:DISL:MHPA:1,2010-11-04T14:30:00Z,30.6671,-87.9365,1.849,5.15,1111122 
DISL,ioos:station:DISL:MHPA:1,2010-11-04T15:00:00Z,30.6671,-87.9365,1.772,4.81,1111122 
DISL,ioos:station:DISL:MHPA:1,2010-11-04T15:30:00Z,30.6671,-87.9365,1.701,5.21,1111122 
DISL,ioos:station:DISL:MHPA:1,2010-11-04T16:00:00Z,30.6671,-87.9365,1.646,4.88,1111122 
DISL,ioos:station:DISL:MHPA:1,2010-11-04T16:30:00Z,30.6671,-87.9365,1.613,4.97,1111122 
DISL,ioos:station:DISL:MHPA:1,2010-11-04T17:00:00Z,30.6671,-87.9365,1.58,4.99,1111122 
DISL,ioos:station:DISL:MHPA:1,2010-11-04T17:30:00Z,30.6671,-87.9365,1.55,5.1,1111122 
DISL,ioos:station:DISL:MHPA:1,2010-11-04T18:00:00Z,30.6671,-87.9365,1.559,5.59,1111122 
DISL,ioos:station:DISL:MHPA:1,2010-11-04T18:30:00Z,30.6671,-87.9365,1.616,5.3,1111122 
DISL,ioos:station:DISL:MHPA:1,2010-11-04T19:00:00Z,30.6671,-87.9365,1.737,5.41,1111122 
DISL,ioos:station:DISL:MHPA:1,2010-11-04T19:30:00Z,30.6671,-87.9365,1.903,5.46,1111122 
DISL,ioos:station:DISL:MHPA:1,2010-11-04T20:00:00Z,30.6671,-87.9365,2.035,5.57,1111122 
DISL,ioos:station:DISL:MHPA:1,2010-11-04T20:30:00Z,30.6671,-87.9365,2.197,5.64,1111122 
DISL,ioos:station:DISL:MHPA:1,2010-11-04T21:00:00Z,30.6671,-87.9365,2.288,5.77,1111122 
DISL,ioos:station:DISL:MHPA:1,2010-11-04T21:30:00Z,30.6671,-87.9365,2.384,5.69,1111122 
DISL,ioos:station:DISL:MHPA:1,2010-11-04T22:00:00Z,30.6671,-87.9365,2.618,5.81,1111122 
DISL,ioos:station:DISL:MHPA:1,2010-11-04T22:30:00Z,30.6671,-87.9365,2.924,5.74,1111122 
DISL,ioos:station:DISL:MHPA:1,2010-11-04T23:00:00Z,30.6671,-87.9365,3.101,5.56,1111122 
DISL,ioos:station:DISL:MHPA:1,2010-11-04T23:30:00Z,30.6671,-87.9365,3.217,5.66,1111122 
DISL,ioos:station:DISL:MHPA:1,2010-11-05T00:00:00Z,30.6671,-87.9365,3.247,5.72,1111122 
DISL,ioos:station:DISL:MHPA:1,2010-11-05T00:30:00Z,30.6671,-87.9365,3.415,5.48,1111122 
DISL,ioos:station:DISL:MHPA:1,2010-11-05T01:00:00Z,30.6671,-87.9365,3.399,5.86,1111122 
DISL,ioos:station:DISL:MHPA:1,2010-11-05T01:30:00Z,30.6671,-87.9365,3.473,5.59,1111122 
DISL,ioos:station:DISL:MHPA:1,2010-11-05T02:00:00Z,30.6671,-87.9365,3.685,5.52,1111122 
DISL,ioos:station:DISL:MHPA:1,2010-11-05T02:30:00Z,30.6671,-87.9365,3.673,5.64,1111122 
DISL,ioos:station:DISL:MHPA:1,2010-11-05T03:00:00Z,30.6671,-87.9365,3.679,5.53,1111122 
DISL,ioos:station:DISL:MHPA:1,2010-11-05T03:30:00Z,30.6671,-87.9365,3.653,5.4,1111122 
DISL,ioos:station:DISL:MHPA:1,2010-11-05T04:00:00Z,30.6671,-87.9365,3.591,5.27,1111122 
DISL,ioos:station:DISL:MHPA:1,2010-11-05T04:30:00Z,30.6671,-87.9365,3.646,5.45,1111122 
DISL,ioos:station:DISL:MHPA:1,2010-11-05T05:00:00Z,30.6671,-87.9365,3.604,5.28,1111122 
DISL,ioos:station:DISL:MHPA:1,2010-11-05T05:30:00Z,30.6671,-87.9365,3.414,5.22,1111122 
DISL,ioos:station:DISL:MHPA:1,2010-11-05T06:00:00Z,30.6671,-87.9365,3.311,5.3,1111122 
DISL,ioos:station:DISL:MHPA:1,2010-11-05T06:30:00Z,30.6671,-87.9365,3.335,5.23,1111122 
DISL,ioos:station:DISL:MHPA:1,2010-11-05T07:00:00Z,30.6671,-87.9365,3.416,5.33,1111122 
DISL,ioos:station:DISL:MHPA:1,2010-11-05T07:30:00Z,30.6671,-87.9365,3.403,5.29,1111122 
DISL,ioos:station:DISL:MHPA:1,2010-11-05T08:00:00Z,30.6671,-87.9365,3.354,5.4,1111122 
DISL,ioos:station:DISL:MHPA:1,2010-11-05T08:30:00Z,30.6671,-87.9365,3.255,5.46,1111122 
DISL,ioos:station:DISL:MHPA:1,2010-11-05T09:00:00Z,30.6671,-87.9365,3.158,5.15,1111122 
DISL,ioos:station:DISL:MHPA:1,2010-11-05T09:30:00Z,30.6671,-87.9365,3.024,5.02,1111122 
DISL,ioos:station:DISL:MHPA:1,2010-11-05T10:00:00Z,30.6671,-87.9365,2.877,4.93,1111122 
DISL,ioos:station:DISL:MHPA:1,2010-11-05T10:30:00Z,30.6671,-87.9365,2.765,4.87,1111122 
DISL,ioos:station:DISL:MHPA:1,2010-11-05T11:00:00Z,30.6671,-87.9365,2.674,4.81,1111122 
DISL,ioos:station:DISL:MHPA:1,2010-11-05T11:30:00Z,30.6671,-87.9365,2.573,4.76,1111122 
DISL,ioos:station:DISL:MHPA:1,2010-11-05T12:00:00Z,30.6671,-87.9365,2.489,4.82,1111122 
DISL,ioos:station:DISL:MHPA:1,2010-11-05T12:30:00Z,30.6671,-87.9365,2.399,4.91,1111122 
DISL,ioos:station:DISL:MHPA:1,2010-11-05T13:00:00Z,30.6671,-87.9365,2.31,4.96,1111122 
DISL,ioos:station:DISL:MHPA:1,2010-11-05T13:30:00Z,30.6671,-87.9365,2.23,5.02,1111122 
DISL,ioos:station:DISL:MHPA:1,2010-11-05T14:00:00Z,30.6671,-87.9365,2.148,5.25,1111122 
DISL,ioos:station:DISL:MHPA:1,2010-11-05T14:30:00Z,30.6671,-87.9365,2.068,5.23,1111122 
DISL,ioos:station:DISL:MHPA:1,2010-11-05T15:00:00Z,30.6671,-87.9365,1.978,5.31,1111122 
DISL,ioos:station:DISL:MHPA:1,2010-11-05T15:30:00Z,30.6671,-87.9365,1.899,5.28,1111122 
DISL,ioos:station:DISL:MHPA:1,2010-11-05T16:00:00Z,30.6671,-87.9365,1.834,4.96,1111122 
DISL,ioos:station:DISL:MHPA:1,2010-11-05T16:30:00Z,30.6671,-87.9365,1.783,4.92,1111122 
DISL,ioos:station:DISL:MHPA:1,2010-11-05T17:00:00Z,30.6671,-87.9365,1.746,5.02,1111122 
DISL,ioos:station:DISL:MHPA:1,2010-11-05T17:30:00Z,30.6671,-87.9365,1.724,5.11,1111122 
DISL,ioos:station:DISL:MHPA:1,2010-11-05T18:00:00Z,30.6671,-87.9365,1.742,5.09,1111122 
DISL,ioos:station:DISL:MHPA:1,2010-11-05T18:30:00Z,30.6671,-87.9365,1.763,5.07,1111122 
DISL,ioos:station:DISL:MHPA:1,2010-11-05T19:00:00Z,30.6671,-87.9365,1.814,5.13,1111122 
DISL,ioos:station:DISL:MHPA:1,2010-11-05T19:30:00Z,30.6671,-87.9365,1.889,5.34,1111122 
DISL,ioos:station:DISL:MHPA:1,2010-11-05T20:00:00Z,30.6671,-87.9365,1.964,5.32,1111122 
DISL,ioos:station:DISL:MHPA:1,2010-11-05T20:30:00Z,30.6671,-87.9365,2.079,5.38,1111122 
DISL,ioos:station:DISL:MHPA:1,2010-11-05T21:00:00Z,30.6671,-87.9365,2.186,5.42,1111122 
DISL,ioos:station:DISL:MHPA:1,2010-11-05T21:30:00Z,30.6671,-87.9365,2.249,5.47,1111122 
DISL,ioos:station:DISL:MHPA:1,2010-11-05T22:00:00Z,30.6671,-87.9365,2.357,5.47,1111122 
DISL,ioos:station:DISL:MHPA:1,2010-11-05T22:30:00Z,30.6671,-87.9365,2.518,5.52,1111122 
DISL,ioos:station:DISL:MHPA:1,2010-11-05T23:00:00Z,30.6671,-87.9365,2.596,5.53,1111122 
DISL,ioos:station:DISL:MHPA:1,2010-11-05T23:30:00Z,30.6671,-87.9365,2.638,5.49,1111122 
DISL,ioos:station:DISL:MHPA:1,2010-11-06T00:00:00Z,30.6671,-87.9365,2.735,5.48,1111122 
DISL,ioos:station:DISL:MHPA:1,2010-11-06T00:30:00Z,30.6671,-87.9365,2.816,5.44,1111122 
DISL,ioos:station:DISL:MHPA:1,2010-11-06T01:00:00Z,30.6671,-87.9365,2.875,5.41,1111122 
DISL,ioos:station:DISL:MHPA:1,2010-11-06T01:30:00Z,30.6671,-87.9365,2.98,5.45,1111122 
DISL,ioos:station:DISL:MHPA:1,2010-11-06T02:00:00Z,30.6671,-87.9365,3.097,5.44,1111122 
DISL,ioos:station:DISL:MHPA:1,2010-11-06T02:30:00Z,30.6671,-87.9365,3.188,5.5,1111122 
DISL,ioos:station:DISL:MHPA:1,2010-11-06T03:00:00Z,30.6671,-87.9365,3.271,5.53,1111122 
DISL,ioos:station:DISL:MHPA:1,2010-11-06T03:30:00Z,30.6671,-87.9365,3.27,5.5,1111122 
DISL,ioos:station:DISL:MHPA:1,2010-11-06T04:00:00Z,30.6671,-87.9365,3.297,5.49,1111122 
DISL,ioos:station:DISL:MHPA:1,2010-11-06T04:30:00Z,30.6671,-87.9365,3.296,5.51,1111122 
DISL,ioos:station:DISL:MHPA:1,2010-11-06T05:00:00Z,30.6671,-87.9365,3.278,5.5,1111122 
DISL,ioos:station:DISL:MHPA:1,2010-11-06T05:30:00Z,30.6671,-87.9365,3.244,5.45,1111122 
DISL,ioos:station:DISL:MHPA:1,2010-11-06T06:00:00Z,30.6671,-87.9365,3.212,5.44,1111122 
DISL,ioos:station:DISL:MHPA:1,2010-11-06T06:30:00Z,30.6671,-87.9365,3.154,5.45,1111122 
DISL,ioos:station:DISL:MHPA:1,2010-11-06T07:00:00Z,30.6671,-87.9365,3.09,5.46,1111122 
DISL,ioos:station:DISL:MHPA:1,2010-11-06T07:30:00Z,30.6671,-87.9365,2.994,5.43,1111122 
DISL,ioos:station:DISL:MHPA:1,2010-11-06T08:00:00Z,30.6671,-87.9365,2.873,5.36,1111122 
DISL,ioos:station:DISL:MHPA:1,2010-11-06T08:30:00Z,30.6671,-87.9365,2.774,5.28,1111122 
DISL,ioos:station:DISL:MHPA:1,2010-11-06T09:00:00Z,30.6671,-87.9365,2.661,5.24,1111122 
DISL,ioos:station:DISL:MHPA:1,2010-11-06T09:30:00Z,30.6671,-87.9365,2.528,5.29,1111122 
DISL,ioos:station:DISL:MHPA:1,2010-11-06T10:00:00Z,30.6671,-87.9365,2.416,5.41,1111122 
DISL,ioos:station:DISL:MHPA:1,2010-11-06T10:30:00Z,30.6671,-87.9365,2.314,5.37,1111122 
DISL,ioos:station:DISL:MHPA:1,2010-11-06T11:00:00Z,30.6671,-87.9365,2.213,5.4,1111122 
DISL,ioos:station:DISL:MHPA:1,2010-11-06T11:30:00Z,30.6671,-87.9365,2.12,5.4,1111122 
DISL,ioos:station:DISL:MHPA:1,2010-11-06T12:00:00Z,30.6671,-87.9365,2.03,5.38,1111122 
DISL,ioos:station:DISL:MHPA:1,2010-11-06T12:30:00Z,30.6671,-87.9365,1.949,5.37,1111122 
DISL,ioos:station:DISL:MHPA:1,2010-11-06T13:00:00Z,30.6671,-87.9365,1.876,5.34,1111122 
DISL,ioos:station:DISL:MHPA:1,2010-11-06T13:30:00Z,30.6671,-87.9365,1.808,5.38,1111122 
DISL,ioos:station:DISL:MHPA:1,2010-11-06T14:00:00Z,30.6671,-87.9365,1.744,5.44,1111122 
DISL,ioos:station:DISL:MHPA:1,2010-11-06T14:30:00Z,30.6671,-87.9365,1.689,5.49,1111122 
DISL,ioos:station:DISL:MHPA:1,2010-11-06T15:00:00Z,30.6671,-87.9365,1.643,5.49,1111122 
DISL,ioos:station:DISL:MHPA:1,2010-11-06T15:30:00Z,30.6671,-87.9365,1.601,5.55,1111122 